Regional Weather Roundup
Issued by NWS

Home | Current Version | Previous Version | Text Only | Print | Product List | Glossary On
Versions: 1 2 3 4 5 6 7 8 9 10 11 12 13 14 15 16 17 18 19 20 21 22 23 24 25 26 27 28 29 30 31 32 33 34 35 36 37 38 39 40 41 42 43 44 45 46 47 48 49 50
000
ASUS43 KTOP 202308
RWRKS

WEATHER ROUNDUP FOR KANSAS
NATIONAL WEATHER SERVICE GOODLAND KS
500 PM CST THU NOV 20 2014

NOTE:  "FAIR" INDICATES FEW OR NO CLOUDS BELOW 12,000 FEET WITH NO
SIGNIFICANT WEATHER AND/OR OBSTRUCTIONS TO VISIBILITY.

KSZ001>006-013>018-027>032-041>047-210000-
NORTHWEST KANSAS

CITY           SKY/WX    TMP DP  RH WIND       PRES   REMARKS
GOODLAND       CLEAR     45  16  31 E8        30.00R
HAYS           CLEAR     45  23  42 SE8       30.06R
HILL CITY      CLEAR     45  25  45 NE9       30.04R
RUSSELL        CLEAR     45  23  42 E9        30.06R
$$

KSZ061>065-074>080-084>089-210000-
SOUTHWEST KANSAS

CITY           SKY/WX    TMP DP  RH WIND       PRES   REMARKS
DODGE CITY     PTCLDY    49  27  42 SE7       30.02R
ELKHART          N/A     49  27  42 E7          N/A
GARDEN CITY    PTCLDY    50  27  40 SE7       30.00R
GREAT BEND     MOCLDY    43  23  45 E8        30.08R
LIBERAL        CLEAR     52  28  40 E10       30.02R
PRATT          PTCLDY    46  27  46 E6        30.07R
$$

KSZ066>073-081>083-090>101-210000-
SOUTHEAST KANSAS

CITY           SKY/WX    TMP DP  RH WIND       PRES   REMARKS
CHANUTE        CLEAR     42  24  49 NE9       30.14R
COFFEYVILLE    CLEAR     47  27  45 NE9       30.11R
HUTCHINSON     PTCLDY    43  24  47 E5        30.08S
MEDICINE LODGE   N/A     48  30  49 E6        30.05R
NEWTON         CLEAR     43  21  42 E6        30.11S
PARSONS        CLEAR     47  26  44 NE5       30.13R
WICHITA INTL   PTCLDY    48  24  39 E9        30.08R
WICHITA JABRA  CLEAR     45  24  43 E8G23     30.09R
WICHITA MCCONL CLEAR     47  22  37 E9        30.09R
WINFIELD       CLEAR     48  25  40 E9        30.09R
$$

KSZ007>012-019>026-033>040-048>060-102>105-210000-
NORTHEAST KANSAS

CITY           SKY/WX    TMP DP  RH WIND       PRES   REMARKS
CONCORDIA      CLEAR     37  20  50 E7        30.13R
EMPORIA        CLEAR     39  20  46 E9        30.14R
LAWRENCE       CLEAR     34  18  52 E6        30.20R HAZE
MANHATTAN      CLEAR     38  19  46 E8        30.16R
MARYSVILLE     CLEAR     34  21  60 E5        30.17R
OLATHE IND     CLEAR     36  19  50 E5        30.19R
OLATHE EXE     CLEAR     36  19  50 E6        30.17S
SALINA         CLEAR     46  20  35 E8        30.11S
TOPEKA BILLARD CLEAR     38  19  46 NE7       30.19R
TOPEKA FORBES  CLEAR     38  19  46 E7        30.17R
$$



USA.gov is the U.S. government's official web portal to all federal, state and local government web resources and services.